Hourly Data Report for February 10, 2017

All times are specified in Local Standard Time (LST). Add 1 hour to adjust for Daylight Saving Time where and when it is observed.

TORONTO CITY
ONTARIO

43°40'00.000" N
79°24'00.000" W
112.50 m
6158355
71508
XTO

Download Data

Hourly Data (February 2017)
Hourly Data Report for February 10, 2017
TIME Temp Definition
°C
Dew Point Definition
°C
Rel Hum Definition
%
Wind Dir Definition
10's deg

Wind Spd Definition
km/h
Visibility Definition
km
Stn Press Definition
kPa
Hmdx Definition


Wind Chill Definition


Weather Definition


00:00 -6.5 -12.1 64 LegendMM LegendMM   100.54     LegendNANA
01:00 -6.5 -12.2 64 LegendMM LegendMM   100.59     LegendNANA
02:00 -6.4 -12.0 64 LegendMM LegendMM   100.68     LegendNANA
03:00 -6.0 -12.3 61 LegendMM LegendMM   100.73     LegendNANA
04:00 -6.1 -12.4 61 LegendMM LegendMM   100.79     LegendNANA
05:00 -6.4 -12.1 64 LegendMM LegendMM   100.83     LegendNANA
06:00 -6.6 -12.0 66 LegendMM LegendMM   100.88     LegendNANA
07:00 -6.3 -11.9 64 LegendMM LegendMM   100.86     LegendNANA
08:00 -6.1 -11.7 64 LegendMM LegendMM   100.97     LegendNANA
09:00 -5.4 -11.4 62 LegendMM LegendMM   100.99     LegendNANA
10:00 -4.9 -11.5 60 LegendMM LegendMM   100.96     LegendNANA
11:00 -4.5 -11.9 56 LegendMM LegendMM   100.89     LegendNANA
12:00 -4.3 -10.9 60 LegendMM LegendMM   100.81     LegendNANA
13:00 -4.4 -10.7 61 LegendMM LegendMM   100.73     LegendNANA
14:00 -5.2 -7.8 82 LegendMM LegendMM   100.58     LegendNANA
15:00 -5.1 -6.7 88 LegendMM LegendMM   100.39     LegendNANA
16:00 -3.8 -5.1 91 LegendMM LegendMM   100.20     LegendNANA
17:00 -4.1 -5.9 87 LegendMM LegendMM   100.06     LegendNANA
18:00 -3.6 -5.0 90 LegendMM LegendMM   99.96     LegendNANA
19:00 -3.2 -4.4 92 LegendMM LegendMM   99.89     LegendNANA
20:00 -2.8 -4.6 88 LegendMM LegendMM   99.72     LegendNANA
21:00 -2.1 -5.4 78 LegendMM LegendMM   99.58     LegendNANA
22:00 -1.2 -5.7 72 LegendMM LegendMM   99.51     LegendNANA
23:00 -0.5 -7.0 62 LegendMM LegendMM   99.48     LegendNANA

Notes on Data Quality.

Legend

  • E = Estimated
  • M = Missing
  • NA = Not Available
Date modified: